Forecast Directory
U.S. Alerts
El Dorado Weather Logo
U.S. Radar Loop Conditions Map

U.S. Color Satellite North America Color Infrared Animated Satellite Loop

Interactive Wx Map Live U.S. Google Map Radar Thumbnail Image

US Precipitation 1 day, 24 hour precipitation map

US Temperatures US Conditions Map

US Climate Data US Conditions Map


NOAA NWS Hourly Roundups by Site
Regional Weather Roundup for Sacramento, CA
Select Site:  

819
ASUS46 KSTO 182015
RWRCA

NORTHERN AND CENTRAL CA REGIONAL WEATHER ROUNDUP
NATIONAL WEATHER SERVICE SACRAMENTO CA
100 PM PDT SUN AUG 18 2019

NOTE: FAIR INDICATES FEW OR NO CLOUDS BELOW 12,000 FEET WITH NO
SIGNIFICANT WEATHER AND/OR OBSTRUCTIONS TO VISIBILITY.

CAZ001-003-182100-
NORTHWEST AREA

CITY           SKY/WX    TMP DP  RH WIND       PRES   REMARKS
CRESCENT CITY  CLOUDY    59  54  83 S9        29.91R
UKIAH          SUNNY     79  54  41 SE7       29.83F
$$

CAZ006-505>513-182100-
BAY AREA

CITY           SKY/WX    TMP DP  RH WIND       PRES   REMARKS
SANTA ROSA     MOSUNNY   71  57  61 VRB5      29.88F
SAN RAFAEL     N/A       MM  MM  MM MISG
NAPA           SUNNY     73  55  53 SW14      29.88F
CONCORD        SUNNY     77  56  48 NW14      29.85F
OAKLAND CITY   N/A       71  MM  MM MISG
OAKLAND        MOSUNNY   73  56  54 W9        29.89S
SAN FRAN CITY  N/A       69  MM  61 MISG
SAN FRAN ARPT  MOSUNNY   71  55  56 S14G23    29.89S
LIVERMORE      SUNNY     80  52  37 SW12      29.85F
HAYWARD        SUNNY     75  58  55 W10       29.88S
REDWOOD CITY   N/A       77  MM  52 MISG
MOFFETT ARPT   SUNNY     77  56  48 SE9       29.88S
SAN JOSE ARPT  MOSUNNY   77  56  48 SE14      29.88S
$$
CAZ034-037-514>518-182100-
CENTRAL COAST

CITY           SKY/WX    TMP DP  RH WIND       PRES   REMARKS
WATSONVILLE    CLOUDY    67  56  67 W13       29.96R
SALINAS        MOSUNNY   72  56  57 W10       29.93S
MONTEREY       SUNNY     72  54  53 W14G20    29.94S
SAN LUIS OBISP MOSUNNY   69  54  58 S6        29.95F
SANTA MARIA    PTSUNNY   71  56  58 VRB5      29.96S
$$
CAZ015-016-182100-
NORTHERN SACRAMENTO VALLEY

CITY           SKY/WX    TMP DP  RH WIND       PRES   REMARKS
REDDING        SUNNY     88  52  29 S7        29.80F
RED BLUFF      SUNNY     86  56  35 VRB7      29.82F
OROVILLE       SUNNY     83  55  38 S5        29.85F
$$
CAZ016>018-182100-
SOUTHERN SACRAMENTO VALLEY

CITY           SKY/WX    TMP DP  RH WIND       PRES   REMARKS
AUBURN         SUNNY     82  48  30 VRB7G13   29.89F
LINCOLN        FAIR      81  54  39 S9        29.84F
MARYSVILLE     SUNNY     81  56  42 S6        29.84F
PLACERVILLE    FAIR      81  48  32 SW7       29.96S
SAC INTL ARPT  SUNNY     79  55  43 S13       29.84S
MATHER AIRPORT SUNNY     79  52  38 SW12      29.84F
DOWNTOWN SAC   N/A       81  MM  MM MISG
SAC EXEC ARPT  SUNNY     77  55  46 S10       29.85F
VACAVILLE      SUNNY     82  57  42 SW12      29.85F
TRAVIS AFB     SUNNY     79  53  40 W20       29.85F
$$
CAZ019>021-182100-
SAN JOAQUIN VALLEY

CITY           SKY/WX    TMP DP  RH WIND       PRES   REMARKS
STOCKTON       SUNNY     83  53  35 NW5       29.85F
MODESTO        SUNNY     82  52  35 N5        29.84F
MERCED         SUNNY     81  55  40 VRB5      29.85S
LEMOORE        SUNNY     87  49  26 VRB5      29.84F
FRESNO         SUNNY     88  47  24 SE7       29.85F
HANFORD        SUNNY     88  48  25 SW6       29.85S
PORTERVILLE      N/A    N/A N/A N/A MISG        N/A
BAKERSFIELD    SUNNY     92  54  27 NW13      29.83F HX  90
$$
CAZ011-012-071-182100-
NORTHERN MOUNTAINS

CITY           SKY/WX    TMP DP  RH WIND       PRES   REMARKS
YREKA          SUNNY     89  45  21 VRB3      29.86F
MOUNT SHASTA   SUNNY     84  44  24 CALM      29.94S
ALTURAS        SUNNY     88  31  13 SW10G18   29.95F
$$
CAZ011-012-071-182100-
SIERRA NEVADA MTNS

CITY           SKY/WX    TMP DP  RH WIND       PRES   REMARKS
BLUE CANYON    SUNNY     74  48  39 SW7       30.10S
TRUCKEE        SUNNY     82  28  14 S8        30.08F
TAHOE VLY ARPT SUNNY     77  35  21 N9        30.11S
MAMMOTH LAKES  FAIR      81  23  12 E12       30.16F
$$



 

View Past Reports for Sacramento, CA.

Products Courtesy of NOAA-NWS
NWS Information Parsing Script by Ken True at Saratoga Weather - Script by SE Lincoln Weather.

Google


Contact Us | Mobile
Never base any life decisions on weather information from this site or anywhere over the Internet.
Site is dedicated to our Lord & Savior Jesus Christ | Random Quotes

Copyright © 2019 El Dorado Weather, Inc. | Site Designed By:  El Dorado Weather